weather.gov     
National Weather Service

Regional Weather Roundup
NWS Homepage
This page is being discontinued on March 12, 2014.
The same data is available at this site. Please update your bookmarks.
Thank you, and we apologize for the inconvenience.
Please send an email to SR-SRH.Webmaster@noaa.gov with any concerns.


Current Version
Previous Version:    01  02  03  04  05  06  07  08  09  10  11  12  13  14  15  16  17  18  19  20  21  22  23  24  25  26  27  28  29  30  
   31  32  33  34  35  36  37  38  39  40  41  42  43  44  45  46  47  48  49  50  51  52  53  54  
[Printable]
612
ASUS44 KMEG 251910
RWRTN
TENNESSEE HOURLY STATE WEATHER ROUNDUP
NATIONAL WEATHER SERVICE MEMPHIS TN
200 PM CDT SAT OCT 25 2014

TNZ002-004-019-021-049-052-054-088>092-252000-
WEST TENNESSEE

CITY           SKY/WX    TMP DP  RH WIND       PRES   REMARKS
MEMPHIS INTL   MOSUNNY   80  62  54 SW6       30.05F
NWS MEMPHIS      N/A     80 N/A N/A MISG        N/A
JACKSON        SUNNY     80  62  54 VRB6      30.03F
DYERSBURG      SUNNY     81  57  44 SW3       30.03F
UNION CITY     SUNNY     79  63  57 SW8       30.00F
PARIS          SUNNY     75  61  60 W7        30.02F
HUNTINGDON     SUNNY     77  61  57 SW8       30.01F
LEXINGTON      SUNNY     79  63  57 SW5       30.02F
SAVANNAH       SUNNY     79  64  61 VRB7      30.03F
$$

TNZ008-025-027-028-033-062-065-066-252000-
NORTH MIDDLE TENNESSEE

CITY           SKY/WX    TMP DP  RH WIND       PRES   REMARKS
NASHVILLE      MOSUNNY   78  59  51 W7        30.01F
CLARKSVILLE    SUNNY     77  61  57 W10       30.00F HAZE
SMYRNA         SUNNY     78  61  55 NW9       30.02F
COOKEVILLE     PTSUNNY   72  55  56 CALM      30.04F
CROSSVILLE     CLOUDY    68  52  56 W9        30.06F
$$

TNZ061-075-076-078-094-096-097-252000-
SOUTH MIDDLE TENNESSEE

CITY           SKY/WX    TMP DP  RH WIND       PRES   REMARKS
FAYETTEVILLE   SUNNY     72  55  56 VRB7      30.05F
TULLAHOMA      SUNNY     73  55  53 W8        30.05F
WINCHESTER     SUNNY     72  55  56 NW3       30.05F
MCMINNVILLE    PTSUNNY   73  61  64 CALM      30.04F
COLUMBIA       SUNNY     79  64  61 W7        30.01F
SHELBYVILLE    SUNNY     77  61  57 W7        30.04F
$$

TNZ017-018-042-046-047-252000-
NORTHEAST TENNESSEE

CITY           SKY/WX    TMP DP  RH WIND       PRES   REMARKS
TRI CITIES     SUNNY     67  47  48 SW8       30.02F
ELIZABETHTON   CLEAR     64  46  52 W8        30.03F
$$

TNZ012-013-036-069-073-074-252000-
CENTRAL EAST TENNESSEE

CITY           SKY/WX    TMP DP  RH WIND       PRES   REMARKS
KNOXVILLE      MOSUNNY   69  47  45 CALM      30.03F
OAK RIDGE      PTSUNNY   71  48  43 VRB3      30.04F
GATLINBURG     CLEAR     70  45  40 VRB3      30.02F
MORRISTOWN     CLEAR     70  48  46 VRB3      30.04F
$$

TNZ083-085-099-252000-
SOUTHEAST TENNESSEE

CITY           SKY/WX    TMP DP  RH WIND       PRES   REMARKS
CHATTANOOGA    MOSUNNY   73  50  44 CALM      30.04F
$$

SKY/WX REPORTED AS FAIR MEANS FEW OR NO CLOUDS BELOW
12 THOUSAND FEET.





U.S. Dept. of Commerce
NOAA National Weather Service
1325 East West Highway
Silver Spring, MD 20910
E-mail: w-nws.webmaster@noaa.gov
Page last modified: May 16, 2007
NATIONAL WEATHER SERVICE: for Safety, for Work, for Fun - FOR LIFE